Date String (YYYY-MM-DD hh:mm:ss) UTC,Instrument flags,Ambient pressure (hPa),Sample flow (lpm),Bypass flow (lpm),Sample temperature (°C),Ambient temperature (°C),ASC tube jacket temperature (°C),LED temperature (°C),Box temperature (°C),Sample RH (%),Span deviation,Mass concentration (μg/m³),Mass concentration (μg/m³),Mass concentration (μg/m³)
DateTimeUTC,F1_M11,P_M11,Q1_M11,Q2_M11,T1_M11,T2_M11,T3_M11,T4_M11,T5_M11,U1_M11,ZSPAN_M11,X2_M11,X0_M11,X1_M11
2022-10-19 00:00:00,,0832.6,4.99,0.00,29.8,28.1,00.0,38.6,31.6,12.0,0000.0,0005.43,0017.95,0004.18
2022-10-19 00:01:00,,0832.6,5.01,0.00,29.8,28.2,00.0,38.6,31.7,12.0,0000.0,0005.40,0017.68,0004.18
2022-10-19 00:02:00,,0832.6,5.01,0.00,29.8,28.4,00.0,38.6,31.7,12.0,0000.0,0005.41,0017.84,0004.18
2022-10-19 00:03:00,,0832.6,4.99,0.00,29.8,28.5,00.0,38.6,31.7,12.0,0000.0,0005.45,0018.63,0004.18
2022-10-19 00:04:00,,0832.6,5.01,0.00,29.8,28.6,00.0,38.6,31.7,12.0,0000.0,0005.46,0019.11,0004.17
2022-10-19 00:05:00,,0832.6,4.99,0.00,29.9,28.7,00.0,38.6,31.8,12.0,0000.0,0005.44,0019.06,0004.16
2022-10-19 00:06:00,,0832.6,5.01,0.00,29.9,28.8,00.0,38.6,31.8,12.0,0000.0,0005.36,0019.49,0004.15
2022-10-19 00:07:00,,0832.6,4.99,0.00,29.9,28.8,00.0,38.6,31.9,12.0,0000.0,0005.30,0019.32,0004.13
2022-10-19 00:08:00,,0832.6,5.01,0.00,30.0,28.9,00.0,38.6,31.9,12.0,0000.0,0005.27,0018.65,0004.12
2022-10-19 00:09:00,,0832.6,4.98,0.00,30.0,28.9,00.0,38.7,31.9,11.9,0000.0,0005.25,0018.67,0004.11
2022-10-19 00:10:00,,0832.6,5.01,0.00,30.0,29.0,00.0,38.7,32.0,11.9,0000.0,0005.30,0019.32,0004.10
2022-10-19 00:11:00,,0832.6,5.00,0.00,30.0,28.9,00.0,38.7,32.0,11.8,0000.0,0005.31,0019.64,0004.09
2022-10-19 00:12:00,,0832.6,5.01,0.00,30.0,27.7,00.0,38.7,31.8,11.8,0000.0,0005.31,0019.47,0004.08
2022-10-19 00:13:00,,0832.6,5.01,0.00,30.0,26.7,00.0,38.6,31.7,11.8,0000.0,0005.28,0018.97,0004.07
2022-10-19 00:14:00,,0832.6,5.01,0.00,29.9,26.6,00.0,38.6,31.6,11.8,0000.0,0005.22,0018.60,0004.06
2022-10-19 00:15:00,,0832.6,4.99,0.00,29.8,26.9,00.0,38.6,31.5,11.9,0000.0,0005.20,0017.75,0004.04
2022-10-19 00:16:00,,0832.7,4.99,0.00,29.8,27.3,00.0,38.6,31.5,11.9,0000.0,0005.23,0018.33,0004.04
2022-10-19 00:17:00,,0832.6,5.01,0.00,29.8,27.5,00.0,38.5,31.5,12.0,0000.0,0005.27,0019.01,0004.04
2022-10-19 00:18:00,,0832.6,4.99,0.00,29.7,27.8,00.0,38.5,31.5,12.0,0000.0,0005.26,0019.46,0004.05
2022-10-19 00:19:00,,0832.6,5.00,0.00,29.7,28.0,00.0,38.5,31.6,12.0,0000.0,0005.24,0018.76,0004.05
2022-10-19 00:20:00,,0832.6,5.01,0.00,29.7,28.1,00.0,38.5,31.6,12.0,0000.0,0005.20,0018.92,0004.04
2022-10-19 00:21:00,,0832.6,4.98,0.00,29.7,28.2,00.0,38.5,31.6,12.0,0000.0,0005.20,0019.06,0004.05
2022-10-19 00:22:00,,0832.6,5.01,0.00,29.8,28.3,00.0,38.5,31.6,12.0,0000.0,0005.16,0018.40,0004.06
2022-10-19 00:23:00,,0832.6,4.99,0.00,29.8,28.4,00.0,38.5,31.7,12.0,0000.0,0005.10,0018.40,0004.05
2022-10-19 00:24:00,,0832.6,5.01,0.00,29.8,28.5,00.0,38.5,31.7,12.0,0000.0,0005.05,0018.49,0004.04
2022-10-19 00:25:00,,0832.6,4.99,0.00,29.8,28.6,00.0,38.5,31.7,11.9,0000.0,0005.04,0018.53,0004.04
2022-10-19 00:26:00,,0832.6,5.00,0.00,29.8,28.6,00.0,38.6,31.7,11.8,0000.0,0005.01,0018.46,0004.04
2022-10-19 00:27:00,,0832.6,5.02,0.00,29.9,28.7,00.0,38.6,31.8,11.7,0000.0,0004.95,0017.42,0004.03
2022-10-19 00:28:00,,0832.6,5.01,0.00,29.9,28.7,00.0,38.6,31.8,11.7,0000.0,0004.90,0015.21,0004.01
2022-10-19 00:29:00,,0832.6,5.00,0.00,29.9,28.8,00.0,38.6,31.8,11.7,0000.0,0004.88,0015.28,0004.00
2022-10-19 00:30:00,,0832.6,5.00,0.00,29.9,28.8,00.0,38.6,31.9,11.6,0000.0,0004.82,0015.93,0003.97
2022-10-19 00:31:00,,0832.6,5.00,0.00,30.0,28.9,00.0,38.6,31.9,11.5,0000.0,0004.81,0015.58,0003.95
2022-10-19 00:32:00,,0832.6,5.01,0.00,30.0,28.9,00.0,38.6,31.9,11.5,0000.0,0004.76,0014.59,0003.91
2022-10-19 00:33:00,,0832.6,4.99,0.00,30.0,28.9,00.0,38.7,31.9,11.5,0000.0,0004.77,0015.16,0003.87
2022-10-19 00:34:00,,0832.6,5.00,0.00,30.0,28.9,00.0,38.7,31.9,11.4,0000.0,0004.75,0015.12,0003.83
2022-10-19 00:35:00,,0832.6,5.01,0.00,30.0,28.9,00.0,38.7,32.0,11.3,0000.0,0004.74,0014.79,0003.79
2022-10-19 00:36:00,,0832.7,5.00,0.00,30.1,28.9,00.0,38.7,32.0,11.3,0000.0,0004.68,0014.22,0003.74
2022-10-19 00:37:00,,0832.7,4.98,0.00,30.1,27.7,00.0,38.7,31.9,11.3,0000.0,0004.68,0014.99,0003.70
2022-10-19 00:38:00,,0832.7,5.03,0.00,30.0,26.4,00.0,38.7,31.7,11.4,0000.0,0004.66,0014.81,0003.67
2022-10-19 00:39:00,,0832.7,4.98,0.00,29.9,26.4,00.0,38.6,31.6,11.4,0000.0,0004.63,0014.81,0003.65
2022-10-19 00:40:00,,0832.7,5.00,0.00,29.8,26.7,00.0,38.6,31.4,11.5,0000.0,0004.60,0015.13,0003.62
2022-10-19 00:41:00,,0832.8,5.00,0.00,29.8,27.0,00.0,38.6,31.5,11.5,0000.0,0004.63,0014.47,0003.59
2022-10-19 00:42:00,,0832.7,4.99,0.00,29.7,27.3,00.0,38.6,31.5,11.6,0000.0,0004.61,0015.00,0003.57
2022-10-19 00:43:00,,0832.7,4.99,0.00,29.7,27.6,00.0,38.5,31.5,11.6,0000.0,0004.64,0015.66,0003.55
2022-10-19 00:44:00,,0832.7,5.01,0.00,29.7,27.8,00.0,38.5,31.5,11.5,0000.0,0004.61,0014.91,0003.55
2022-10-19 00:45:00,,0832.7,5.01,0.00,29.7,27.9,00.0,38.5,31.5,11.5,0000.0,0004.61,0014.57,0003.54
2022-10-19 00:46:00,,0832.8,5.00,0.00,29.7,28.1,00.0,38.5,31.6,11.5,0000.0,0004.58,0014.34,0003.54
2022-10-19 00:47:00,,0832.8,4.99,0.00,29.7,28.2,00.0,38.5,31.6,11.5,0000.0,0004.58,0014.31,0003.54
2022-10-19 00:48:00,,0832.8,5.01,0.00,29.7,28.3,00.0,38.5,31.6,11.5,0000.0,0004.54,0013.66,0003.53
2022-10-19 00:49:00,,0832.8,4.99,0.00,29.7,28.3,00.0,38.5,31.6,11.5,0000.0,0004.53,0013.54,0003.52
2022-10-19 00:50:00,,0832.8,5.01,0.00,29.8,28.4,00.0,38.5,31.6,11.4,0000.0,0004.51,0013.69,0003.51
2022-10-19 00:51:00,,0832.8,4.98,0.00,29.8,28.4,00.0,38.5,31.7,11.5,0000.0,0004.53,0012.57,0003.50
2022-10-19 00:52:00,,0832.8,5.01,0.00,29.8,28.5,00.0,38.5,31.7,11.4,0000.0,0004.52,0012.60,0003.49
2022-10-19 00:53:00,,0832.8,5.01,0.00,29.8,28.5,00.0,38.5,31.7,11.4,0000.0,0004.47,0012.14,0003.48
2022-10-19 00:54:00,,0832.8,4.99,0.00,29.8,28.5,00.0,38.5,31.7,11.4,0000.0,0004.41,0011.71,0003.47
2022-10-19 00:55:00,,0832.8,5.00,0.00,29.8,28.6,00.0,38.6,31.7,11.4,0000.0,0004.37,0012.25,0003.46
2022-10-19 00:56:00,,0832.7,4.99,0.00,29.8,28.6,00.0,38.6,31.8,11.4,0000.0,0004.37,0012.06,0003.45
2022-10-19 00:57:00,,0832.7,5.01,0.00,29.9,28.6,00.0,38.6,31.7,11.3,0000.0,0004.38,0011.80,0003.44
2022-10-19 00:58:00,,0832.8,4.98,0.00,29.9,28.6,00.0,38.6,31.8,11.3,0000.0,0004.37,0011.91,0003.43
2022-10-19 00:59:00,,0832.8,5.01,0.00,29.9,28.6,00.0,38.6,31.8,11.3,0000.0,0004.35,0011.64,0003.42
